Location: Prairie View Elementary School
(39.8322°N, 99.5698°W)
Time: 05:03:41
(UTC+00:00)

Cosmos 2084 Rocket - Pass Details

Date: 08 December 2019
Orbit: 572 x 610 km, 62.8° (Epoch: 21 January)

Event Time Altitude Azimuth Distance (km) Brightness Sun altitude
Exits shadow 11:37:40 35° 9° (N) 996 4.5 -24.1°
Maximum altitude 11:38:53 43° 50° (NE) 855 4.5 -23.8°
Drops below altitude 10° 11:43:06 10° 123° (ESE) 1,946 7.0 -23.0°
Sets 11:45:26 0° 130° (SE) 2,841 8.0 -22.6°
